BAW57K EGLL-FAOR

Flight info

Callsign BAW57K
Flight time N/A
Altitude 23000
Route MAXIT1F MAXIT Y803 MID L612 XAMAB/N0491F330 UL612 VEULE DCT DEKOD DCT DISAK DCT DIRMO/N0492F350 DCT ETAMO DCT ADEKA DCT MOKDI DCT MEN DCT AMLIR DCT FJR DCT OBLAD DCT KAMER UM998 CSO UA605 DJA UB730 ENDOK/N0496F370 UB730 DIR UA607 FL UM731 BUSIV/N0494F390 UM731 RUDAS UQ25 ITROL UQ44 AVAGO AVAGO1C
Aircraft A388/J-SADE2E3FGHIJ3J4J5M1RWXY/LB1D1

Departure

Time N/A
Airport London Heathrow Airport (EGLL)

Arrival

Time 2026-05-03 23:22
Airport O.R. Tambo International Airport (FAOR)
Time Latitude Longitude Altitude Speed Heading
2026-05-03 22:27 -21.14516 25.27624 39107 ft 503 kts 162°
2026-05-03 22:27 -21.17775 25.28997 39106 ft 503 kts 162°
2026-05-03 22:28 -21.24251 25.31724 39111 ft 503 kts 162°
2026-05-03 22:28 -21.30763 25.34469 39095 ft 503 kts 162°
2026-05-03 22:29 -21.37285 25.37220 39098 ft 504 kts 162°
2026-05-03 22:29 -21.43808 25.39974 39113 ft 504 kts 162°
2026-05-03 22:30 -21.50345 25.42737 39117 ft 505 kts 162°
2026-05-03 22:30 -21.56880 25.45501 39122 ft 505 kts 162°
2026-05-03 22:31 -21.63390 25.48298 39123 ft 506 kts 161°
2026-05-03 22:31 -21.69866 25.51288 39133 ft 506 kts 160°
2026-05-03 22:32 -21.76333 25.54272 39133 ft 506 kts 160°
2026-05-03 22:32 -21.82810 25.57240 39130 ft 505 kts 161°
2026-05-03 22:33 -21.89276 25.60201 39129 ft 505 kts 161°
2026-05-03 22:33 -21.95734 25.63162 39128 ft 504 kts 161°
2026-05-03 22:34 -22.02191 25.66124 39117 ft 505 kts 160°
2026-05-03 22:34 -22.08651 25.69092 39116 ft 505 kts 160°
2026-05-03 22:35 -22.15114 25.72064 39123 ft 505 kts 160°
2026-05-03 22:35 -22.21578 25.75039 39134 ft 505 kts 160°
2026-05-03 22:36 -22.28046 25.78019 39146 ft 505 kts 160°
2026-05-03 22:36 -22.34474 25.80984 39144 ft 506 kts 160°
2026-05-03 22:37 -22.40940 25.83970 39144 ft 505 kts 160°
2026-05-03 22:37 -22.47407 25.86958 39149 ft 505 kts 160°
2026-05-03 22:38 -22.53867 25.89947 39157 ft 505 kts 160°
2026-05-03 22:38 -22.60331 25.92940 39155 ft 505 kts 160°
2026-05-03 22:39 -22.66785 25.95931 39147 ft 505 kts 160°
2026-05-03 22:39 -22.73245 25.98929 39145 ft 505 kts 160°
2026-05-03 22:40 -22.79706 26.01931 39169 ft 506 kts 160°
2026-05-03 22:40 -22.86171 26.04937 39170 ft 506 kts 160°
2026-05-03 22:41 -22.92637 26.07947 39171 ft 506 kts 160°
2026-05-03 22:41 -22.99055 26.10937 39169 ft 506 kts 160°
2026-05-03 22:42 -23.05525 26.13955 39171 ft 505 kts 160°
2026-05-03 22:42 -23.11983 26.16971 39174 ft 505 kts 160°
2026-05-03 22:43 -23.18442 26.19990 39172 ft 505 kts 160°
2026-05-03 22:43 -23.24901 26.23013 39175 ft 505 kts 160°
2026-05-03 22:44 -23.31355 26.26036 39178 ft 505 kts 160°
2026-05-03 22:44 -23.37814 26.29064 39184 ft 506 kts 160°
2026-05-03 22:45 -23.44277 26.32098 39191 ft 506 kts 160°
2026-05-03 22:45 -23.50742 26.35137 39182 ft 506 kts 160°
2026-05-03 22:46 -23.57206 26.38178 39192 ft 506 kts 160°
2026-05-03 22:46 -23.63677 26.41225 39191 ft 506 kts 160°
2026-05-03 22:47 -23.70147 26.44275 39191 ft 506 kts 160°
2026-05-03 22:47 -23.76613 26.47313 39189 ft 506 kts 160°
2026-05-03 22:48 -23.83086 26.50345 39199 ft 506 kts 160°
2026-05-03 22:48 -23.89549 26.53379 39192 ft 506 kts 160°
2026-05-03 22:49 -23.96014 26.56417 39194 ft 506 kts 160°
2026-05-03 22:49 -24.02479 26.59459 39189 ft 506 kts 160°
2026-05-03 22:50 -24.08943 26.62505 39206 ft 506 kts 160°
2026-05-03 22:50 -24.15373 26.65537 39195 ft 507 kts 160°
2026-05-03 22:51 -24.21850 26.68596 39199 ft 507 kts 160°
2026-05-03 22:51 -24.28298 26.71740 39201 ft 509 kts 156°
2026-05-03 22:52 -24.34310 26.75896 39213 ft 514 kts 145°
2026-05-03 22:52 -24.39741 26.81027 39200 ft 516 kts 141°
2026-05-03 22:53 -24.45124 26.86242 39211 ft 516 kts 141°
2026-05-03 22:53 -24.50504 26.91466 39206 ft 516 kts 141°
2026-05-03 22:54 -24.55875 26.96701 39216 ft 516 kts 141°
2026-05-03 22:54 -24.61245 27.01944 39218 ft 517 kts 141°
2026-05-03 22:55 -24.66613 27.07191 39224 ft 516 kts 141°
2026-05-03 22:55 -24.71983 27.12446 39221 ft 516 kts 141°
2026-05-03 22:56 -24.77347 27.17702 39230 ft 516 kts 141°
2026-05-03 22:56 -24.82702 27.22955 39195 ft 515 kts 141°
2026-05-03 22:56 -24.85373 27.25578 38650 ft 515 kts 141°
2026-05-03 22:57 -24.87991 27.28149 37806 ft 517 kts 140°
2026-05-03 22:57 -24.90745 27.30855 36840 ft 521 kts 140°
2026-05-03 22:57 -24.93427 27.33492 35850 ft 525 kts 140°
2026-05-03 22:57 -24.95272 27.35307 35153 ft 528 kts 140°
2026-05-03 22:58 -24.98908 27.38882 33881 ft 529 kts 141°
2026-05-03 22:58 -25.00885 27.40551 33190 ft 528 kts 148°
2026-05-03 22:58 -25.04086 27.42463 32350 ft 519 kts 159°
2026-05-03 22:58 -25.08616 27.43904 31279 ft 507 kts 174°
2026-05-03 22:59 -25.12099 27.44146 30687 ft 496 kts 182°
2026-05-03 22:59 -25.14408 27.44073 30404 ft 486 kts 184°
2026-05-03 22:59 -25.17751 27.43924 29736 ft 478 kts 184°
2026-05-03 22:59 -25.21054 27.43829 29047 ft 471 kts 182°
2026-05-03 23:00 -25.24310 27.43802 28515 ft 463 kts 182°
2026-05-03 23:00 -25.27501 27.43818 27942 ft 455 kts 181°
2026-05-03 23:00 -25.30638 27.43853 27363 ft 448 kts 181°
2026-05-03 23:00 -25.33737 27.43896 26741 ft 443 kts 181°
2026-05-03 23:01 -25.36830 27.43939 25951 ft 444 kts 181°
2026-05-03 23:01 -25.39899 27.43982 25486 ft 438 kts 181°
2026-05-03 23:01 -25.42937 27.44025 24998 ft 435 kts 181°
2026-05-03 23:01 -25.45977 27.44067 24226 ft 439 kts 181°
2026-05-03 23:02 -25.49011 27.44109 23716 ft 432 kts 181°
2026-05-03 23:02 -25.52000 27.44151 23153 ft 428 kts 181°
2026-05-03 23:02 -25.54957 27.44193 22552 ft 422 kts 181°
2026-05-03 23:02 -25.57872 27.44233 21966 ft 417 kts 181°
2026-05-03 23:03 -25.60742 27.44273 21614 ft 406 kts 181°
2026-05-03 23:03 -25.63509 27.44313 21457 ft 390 kts 181°
2026-05-03 23:03 -25.66176 27.44351 21307 ft 375 kts 181°
2026-05-03 23:03 -25.68741 27.44396 21123 ft 363 kts 178°
2026-05-03 23:04 -25.71198 27.44987 20706 ft 363 kts 156°
2026-05-03 23:04 -25.73301 27.46510 20469 ft 364 kts 135°
2026-05-03 23:04 -25.74856 27.48711 20117 ft 362 kts 120°
2026-05-03 23:04 -25.76090 27.51141 19708 ft 361 kts 117°
2026-05-03 23:05 -25.77273 27.53573 19321 ft 359 kts 117°
2026-05-03 23:05 -25.78501 27.55982 18937 ft 359 kts 119°
2026-05-03 23:05 -25.79772 27.58359 18547 ft 358 kts 120°
2026-05-03 23:05 -25.81065 27.60708 18250 ft 353 kts 120°
2026-05-03 23:06 -25.82345 27.63004 17933 ft 348 kts 121°
2026-05-03 23:06 -25.83606 27.65257 17460 ft 342 kts 121°
2026-05-03 23:06 -25.84868 27.67515 16849 ft 344 kts 121°
2026-05-03 23:06 -25.86119 27.69753 16570 ft 338 kts 121°
2026-05-03 23:07 -25.87352 27.71963 16324 ft 337 kts 121°
2026-05-03 23:07 -25.88584 27.74172 15995 ft 335 kts 121°
2026-05-03 23:07 -25.89807 27.76366 15617 ft 333 kts 121°
2026-05-03 23:07 -25.91019 27.78541 15259 ft 329 kts 121°
2026-05-03 23:08 -25.92219 27.80695 14901 ft 327 kts 121°
2026-05-03 23:08 -25.93409 27.82833 14555 ft 325 kts 121°
2026-05-03 23:08 -25.94591 27.84958 14214 ft 322 kts 121°
2026-05-03 23:08 -25.95764 27.87068 13846 ft 320 kts 121°
2026-05-03 23:09 -25.96929 27.89165 13516 ft 318 kts 121°
2026-05-03 23:09 -25.98076 27.91230 13166 ft 319 kts 121°
2026-05-03 23:09 -25.99240 27.93327 12803 ft 319 kts 121°
2026-05-03 23:09 -26.00396 27.95408 12549 ft 315 kts 121°
2026-05-03 23:10 -26.01549 27.97486 12325 ft 316 kts 121°
2026-05-03 23:10 -26.02702 27.99565 12078 ft 315 kts 121°
2026-05-03 23:10 -26.03851 28.01641 11828 ft 315 kts 120°
2026-05-03 23:10 -26.04659 28.03879 11578 ft 313 kts 98°
2026-05-03 23:11 -26.04607 28.06261 11370 ft 308 kts 73°
2026-05-03 23:11 -26.03703 28.08377 11132 ft 301 kts 49°
2026-05-03 23:11 -26.02137 28.09841 10894 ft 293 kts 24°
2026-05-03 23:11 -26.00210 28.10424 10722 ft 285 kts
2026-05-03 23:12 -25.98235 28.10532 10600 ft 285 kts
2026-05-03 23:12 -25.96287 28.10711 10487 ft 285 kts
2026-05-03 23:12 -25.94329 28.11065 10366 ft 285 kts
2026-05-03 23:12 -25.92396 28.11527 10247 ft 284 kts 11°
2026-05-03 23:13 -25.90474 28.12052 10135 ft 284 kts 12°
2026-05-03 23:13 -25.88563 28.12601 10054 ft 282 kts 12°
2026-05-03 23:13 -25.86693 28.13150 9973 ft 274 kts 12°
2026-05-03 23:13 -25.84931 28.13820 9882 ft 263 kts 28°
2026-05-03 23:14 -25.83639 28.15192 9792 ft 256 kts 56°
2026-05-03 23:14 -25.83113 28.17038 9684 ft 251 kts 85°
2026-05-03 23:14 -25.83455 28.18893 9539 ft 246 kts 116°
2026-05-03 23:14 -25.84492 28.20328 9102 ft 234 kts 136°
2026-05-03 23:15 -25.85684 28.21573 8542 ft 236 kts 136°
2026-05-03 23:15 -25.86843 28.22800 8387 ft 224 kts 136°
2026-05-03 23:15 -25.87949 28.23977 8373 ft 219 kts 136°
2026-05-03 23:15 -25.89044 28.25151 8372 ft 219 kts 136°
2026-05-03 23:16 -25.90139 28.26319 8390 ft 217 kts 136°
2026-05-03 23:16 -25.91229 28.27480 8371 ft 218 kts 136°
2026-05-03 23:16 -25.92323 28.28647 8373 ft 218 kts 136°
2026-05-03 23:16 -25.93418 28.29817 8370 ft 218 kts 136°
2026-05-03 23:17 -25.94670 28.30740 8368 ft 217 kts 162°
2026-05-03 23:17 -25.96157 28.30908 8370 ft 214 kts 186°
2026-05-03 23:17 -25.97597 28.30640 8366 ft 197 kts 196°
2026-05-03 23:17 -25.98835 28.30283 8360 ft 173 kts 200°
2026-05-03 23:18 -25.99968 28.29926 8227 ft 167 kts 199°
2026-05-03 23:18 -26.01076 28.29588 8016 ft 164 kts 199°
2026-05-03 23:18 -26.02169 28.29246 7778 ft 163 kts 199°
2026-05-03 23:18 -26.03255 28.28911 7588 ft 162 kts 199°
2026-05-03 23:19 -26.04336 28.28574 7386 ft 161 kts 199°
2026-05-03 23:19 -26.05413 28.28242 7176 ft 160 kts 199°
2026-05-03 23:19 -26.06485 28.27908 6992 ft 160 kts 199°
2026-05-03 23:19 -26.07551 28.27579 6785 ft 158 kts 199°
2026-05-03 23:20 -26.08603 28.27251 6583 ft 157 kts 198°
2026-05-03 23:20 -26.09647 28.26920 6395 ft 155 kts 197°
2026-05-03 23:20 -26.10698 28.26624 6178 ft 156 kts 197°
2026-05-03 23:20 -26.11732 28.26288 5966 ft 154 kts 198°
2026-05-03 23:21 -26.12766 28.25967 5716 ft 154 kts 196°
2026-05-03 23:21 -26.13792 28.25652 5526 ft 153 kts 196°
2026-05-03 23:21 -26.14708 28.25367 5515 ft 118 kts 197°
2026-05-03 23:21 -26.15350 28.25166 5530 ft 69 kts 195°
2026-05-03 23:22 -26.15589 28.24999 5535 ft 13 kts 282°
2026-05-03 23:22 -26.15577 28.24944 5534 ft 0 kts 289°
2026-05-03 23:24 -26.15576 28.24943 5534 ft 1 kts 289°
2026-05-03 23:24 -26.15557 28.24917 5534 ft 8 kts 336°
2026-05-03 23:25 -26.15465 28.24919 5532 ft 19 kts 14°
2026-05-03 23:25 -26.15339 28.24960 5530 ft 21 kts 17°
2026-05-03 23:25 -26.15166 28.25014 5527 ft 31 kts 15°
2026-05-03 23:25 -26.14992 28.25068 5523 ft 26 kts 16°
2026-05-03 23:26 -26.14831 28.25120 5520 ft 22 kts 16°
2026-05-03 23:26 -26.14669 28.25171 5517 ft 26 kts 15°
2026-05-03 23:26 -26.14518 28.25215 5514 ft 13 kts 11°
2026-05-03 23:26 -26.14433 28.25169 5513 ft 18 kts 318°
2026-05-03 23:27 -26.14330 28.25058 5513 ft 19 kts 315°
2026-05-03 23:27 -26.14219 28.24938 5514 ft 24 kts 315°
2026-05-03 23:27 -26.14108 28.24816 5516 ft 18 kts 315°
2026-05-03 23:27 -26.14005 28.24703 5519 ft 20 kts 315°
2026-05-03 23:28 -26.13934 28.24624 5521 ft 10 kts 315°
2026-05-03 23:28 -26.13882 28.24567 5523 ft 11 kts 315°
2026-05-03 23:28 -26.13824 28.24506 5525 ft 12 kts 317°
2026-05-03 23:28 -26.13763 28.24441 5527 ft 12 kts 316°
2026-05-03 23:29 -26.13698 28.24373 5528 ft 13 kts 316°
2026-05-03 23:29 -26.13632 28.24299 5530 ft 14 kts 315°
2026-05-03 23:29 -26.13559 28.24220 5531 ft 15 kts 315°
2026-05-03 23:29 -26.13481 28.24133 5531 ft 17 kts 315°
2026-05-03 23:30 -26.13402 28.24049 5532 ft 16 kts 316°
2026-05-03 23:30 -26.13318 28.23959 5531 ft 18 kts 316°
2026-05-03 23:30 -26.13234 28.23870 5529 ft 17 kts 316°
2026-05-03 23:30 -26.13150 28.23776 5529 ft 18 kts 315°
2026-05-03 23:31 -26.13059 28.23727 5528 ft 15 kts
2026-05-03 23:31 -26.12947 28.23759 5526 ft 18 kts 17°
2026-05-03 23:31 -26.12858 28.23770 5525 ft 10 kts 328°
2026-05-03 23:31 -26.12832 28.23707 5525 ft 9 kts 262°
2026-05-03 23:32 -26.12855 28.23672 5525 ft 4 kts 217°
2026-05-03 23:32 -26.12874 28.23663 5526 ft 4 kts 193°
2026-05-03 23:32 -26.12910 28.23658 5526 ft 5 kts 187°
2026-05-03 23:32 -26.12921 28.23656 5526 ft 0 kts 187°